CW4784 Weather Reports


time (UTC)temp
C
wind
direction
speed
KPH
gust
KPH
rain 1hr
cm
rain 24hr
cm
rain mn
cm
humidity
%
barometer
mb
20260510214516 18 171 6.4 14.5 0.00 0.03 0.03 39 1025.7
20260510214008 19 360 1.6 17.7 0.00 0.03 0.03 42 1025.9
20260510213509 18 360 8.0 24.1 0.00 0.03 0.03 40 1026.0
20260510213018 18 360 6.4 24.1 0.00 0.03 0.03 41 1026.0
20260510212510 17 360 1.6 12.9 0.00 0.03 0.03 44 1026.2
20260510212012 17 360 4.8 16.1 0.00 0.03 0.03 43 1026.3
20260510211520 17 179 6.4 16.1 0.00 0.03 0.03 43 1026.4
20260510211010 17 123 4.8 17.7 0.00 0.03 0.03 44 1026.3
20260510210508 16 166 11.3 17.7 0.00 0.03 0.03 45 1026.4
20260510210023 17 65 3.2 19.3 0.00 0.03 0.03 43 1026.4
20260510205504 17 110 11.3 19.3 0.00 0.03 0.03 42 1026.5
20260510205005 18 202 8.0 17.7 0.00 0.03 0.03 45 1026.5
20260510204504 17 180 6.4 14.5 0.00 0.03 0.03 45 1026.6
20260510204003 17 133 6.4 14.5 0.00 0.03 0.03 44 1026.6
20260510203504 17 88 0.0 9.7 0.00 0.03 0.03 45 1026.6
20260510203004 17 360 4.8 14.5 0.00 0.03 0.03 43 1026.7
20260510202503 17 360 6.4 16.1 0.00 0.03 0.03 44 1026.6
20260510202009 16 360 8.0 16.1 0.00 0.03 0.03 46 1026.7
20260510201504 16 360 4.8 17.7 0.00 0.03 0.03 45 1026.7
20260510201004 16 360 9.7 17.7 0.00 0.03 0.03 46 1026.7
20260510200505 16 360 4.8 22.5 0.00 0.03 0.03 46 1026.7
20260510200005 16 360 14.5 22.5 0.00 0.03 0.03 46 1026.8
20260510195504 16 360 4.8 16.1 0.00 0.03 0.03 44 1026.8
20260510195005 16 360 3.2 11.3 0.00 0.03 0.03 46 1026.8
20260510194503 16 360 1.6 16.1 0.00 0.03 0.03 46 1026.9
20260510194007 16 147 9.7 16.1 0.00 0.03 0.03 46 1027.0
20260510193504 16 151 8.0 19.3 0.00 0.03 0.03 47 1027.0
20260510193003 16 147 9.7 19.3 0.00 0.03 0.03 46 1027.0
20260510192503 16 151 4.8 19.3 0.00 0.03 0.03 46 1026.9
20260510192006 16 80 4.8 20.9 0.00 0.03 0.03 47 1026.9
20260510191507 16 154 14.5 20.9 0.00 0.03 0.03 48 1027.0
20260510191002 16 120 3.2 14.5 0.00 0.03 0.03 48 1027.0
20260510190508 15 142 4.8 14.5 0.00 0.03 0.03 49 1027.0
20260510190006 15 107 8.0 17.7 0.00 0.03 0.03 48 1027.0
20260510185506 15 54 6.4 19.3 0.00 0.03 0.03 48 1027.1
20260510185006 15 119 14.5 19.3 0.00 0.03 0.03 49 1027.1
20260510184506 15 119 3.2 19.3 0.00 0.03 0.03 49 1027.1
20260510184010 15 98 9.7 19.3 0.00 0.03 0.03 48 1027.0
20260510183504 15 140 8.0 16.1 0.00 0.03 0.03 51 1027.0
20260510183008 15 138 9.7 16.1 0.00 0.03 0.03 52 1027.0
20260510182508 14 143 3.2 12.9 0.00 0.03 0.03 51 1027.2
20260510182008 14 133 8.0 12.9 0.00 0.03 0.03 51 1027.2
20260510181509 14 53 1.6 16.1 0.00 0.03 0.03 51 1027.3
20260510181007 14 93 8.0 16.1 0.00 0.03 0.03 51 1027.3
20260510180507 14 30 4.8 19.3 0.00 0.03 0.03 53 1027.2
20260510180014 14 156 3.2 19.3 0.00 0.03 0.03 52 1027.3
20260510175507 14 113 11.3 19.3 0.00 0.03 0.03 53 1027.2
20260510175003 14 79 6.4 16.1 0.00 0.03 0.03 52 1027.2
20260510174512 14 139 9.7 17.7 0.00 0.03 0.03 54 1027.3
20260510174007 13 360 4.8 17.7 0.00 0.03 0.03 53 1027.2
20260510173503 14 360 8.0 20.9 0.00 0.03 0.03 54 1027.3
20260510173008 14 360 6.4 20.9 0.00 0.03 0.03 53 1027.3
20260510172507 14 360 8.0 20.9 0.00 0.03 0.03 55 1027.2
20260510172005 14 360 8.0 20.9 0.00 0.03 0.03 53 1027.3
20260510171516 14 360 8.0 24.1 0.00 0.03 0.03 53 1027.4
20260510171003 14 360 8.0 24.1 0.00 0.03 0.03 51 1027.6
20260510170503 15 360 14.5 24.1 0.00 0.03 0.03 52 1027.5
20260510170013 15 360 14.5 24.1 0.00 0.03 0.03 53 1027.6
20260510165508 15 159 9.7 25.7 0.00 0.03 0.03 55 1027.6
20260510165004 13 150 12.9 25.7 0.00 0.03 0.03 58 1027.6
20260510164510 13 149 11.3 22.5 0.00 0.03 0.03 55 1027.4
20260510164014 14 168 12.9 24.1 0.00 0.03 0.03 56 1027.4
20260510163506 14 154 12.9 27.4 0.00 0.03 0.03 59 1027.3
20260510163009 13 164 11.3 27.4 0.00 0.03 0.03 61 1027.3
20260510162503 13 143 16.1 24.1 0.00 0.03 0.03 63 1027.3
20260510162003 13 140 16.1 24.1 0.00 0.03 0.03 62 1027.3
20260510161512 13 153 16.1 25.7 0.00 0.03 0.03 64 1027.2
20260510161008 12 152 16.1 32.2 0.00 0.03 0.03 65 1027.1
20260510160507 12 153 20.9 32.2 0.00 0.03 0.03 64 1027.0
20260510160018 12 175 16.1 27.4 0.00 0.03 0.03 67 1027.1
20260510155512 12 360 17.7 25.7 0.00 0.03 0.03 68 1027.0
20260510155007 11 360 17.7 29.0 0.00 0.03 0.03 69 1027.0
20260510154531 11 360 20.9 29.0 0.00 0.03 0.03 71 1027.1
20260510154008 11 360 14.5 29.0 0.00 0.03 0.03 72 1027.3
20260510153509 10 360 17.7 27.4 0.00 0.03 0.03 73 1027.3
20260510153009 10 360 16.1 25.7 0.00 0.03 0.03 74 1027.3
20260510152510 10 360 14.5 22.5 0.00 0.03 0.03 74 1027.3
20260510152007 10 360 14.5 22.5 0.00 0.03 0.03 74 1027.2
20260510151518 10 360 16.1 22.5 0.00 0.03 0.03 74 1027.2
20260510151007 10 360 14.5 20.9 0.00 0.03 0.03 75 1027.2
20260510150506 10 360 8.0 20.9 0.00 0.03 0.03 77 1027.2
20260510150017 9 360 11.3 20.9 0.00 0.03 0.03 77 1027.2
20260510145507 9 360 9.7 19.3 0.00 0.03 0.03 78 1027.2
20260510145007 8 360 11.3 20.9 0.00 0.03 0.03 78 1027.1
20260510144516 8 360 14.5 20.9 0.00 0.03 0.03 78 1027.1
20260510144008 8 360 14.5 20.9 0.00 0.03 0.03 77 1027.2
20260510143506 8 360 14.5 19.3 0.00 0.03 0.03 78 1027.1
20260510143015 8 360 12.9 20.9 0.00 0.03 0.03 79 1027.0
20260510142507 8 360 11.3 20.9 0.00 0.03 0.03 78 1027.0
20260510142010 8 360 12.9 17.7 0.00 0.03 0.03 78 1027.0
20260510141525 8 360 12.9 17.7 0.00 0.03 0.03 79 1027.0
20260510141009 8 360 12.9 17.7 0.00 0.03 0.03 79 1027.0
20260510140506 8 360 11.3 17.7 0.00 0.03 0.03 80 1027.0
20260510140026 8 360 11.3 16.1 0.00 0.03 0.03 80 1027.0
20260510135506 8 360 9.7 16.1 0.00 0.03 0.03 81 1027.0
20260510135007 8 360 11.3 17.7 0.00 0.03 0.03 81 1027.0
20260510134516 8 360 11.3 17.7 0.00 0.03 0.03 81 1027.0
20260510134005 8 360 11.3 17.7 0.00 0.03 0.03 81 1027.0
20260510133506 8 360 11.3 16.1 0.00 0.03 0.03 81 1026.9
20260510133021 8 360 11.3 16.1 0.00 0.03 0.03 81 1026.9
20260510132508 8 360 11.3 16.1 0.00 0.03 0.03 82 1026.9
20260510132009 8 360 8.0 14.5 0.00 0.03 0.03 83 1026.8
20260510131520 8 360 8.0 14.5 0.00 0.03 0.03 83 1026.7
20260510131009 8 360 6.4 12.9 0.00 0.03 0.03 83 1026.6
20260510130507 8 360 6.4 9.7 0.00 0.03 0.03 84 1026.5
20260510130018 8 360 4.8 9.7 0.00 0.03 0.03 84 1026.5
20260510125508 7 360 3.2 8.0 0.00 0.03 0.03 85 1026.4
20260510125007 7 360 4.8 8.0 0.00 0.03 0.03 85 1026.3
20260510124530 7 360 4.8 8.0 0.00 0.03 0.03 85 1026.3
20260510124010 7 360 3.2 8.0 0.00 0.03 0.03 85 1026.3
20260510123510 7 360 3.2 9.7 0.00 0.03 0.03 84 1026.3
20260510123018 7 360 4.8 9.7 0.00 0.03 0.03 84 1026.2
20260510122510 7 360 4.8 9.7 0.00 0.03 0.03 85 1026.1
20260510122010 7 360 6.4 9.7 0.00 0.03 0.03 85 1026.1
20260510121527 7 360 6.4 9.7 0.00 0.03 0.03 86 1026.1
20260510121010 7 360 4.8 8.0 0.00 0.03 0.03 86 1026.1
20260510120508 7 360 3.2 6.4 0.00 0.03 0.03 86 1026.1
20260510120037 7 360 3.2 6.4 0.00 0.03 0.03 85 1026.1
20260510115506 7 360 3.2 6.4 0.00 0.03 0.03 85 1026.0
20260510115006 7 360 3.2 6.4 0.00 0.03 0.03 85 1025.9
20260510114507 7 360 4.8 8.0 0.00 0.03 0.03 85 1025.9
20260510114004 7 360 4.8 12.9 0.00 0.03 0.03 85 1026.0
20260510113506 7 360 6.4 12.9 0.00 0.03 0.03 85 1025.9
20260510113014 7 360 6.4 12.9 0.00 0.03 0.03 86 1025.9
20260510112511 7 360 8.0 14.5 0.00 0.03 0.03 86 1025.9
20260510112003 7 360 9.7 14.5 0.00 0.03 0.03 86 1025.9
20260510111520 7 360 9.7 14.5 0.00 0.03 0.03 86 1025.9
20260510111003 7 360 6.4 14.5 0.03 0.03 0.03 87 1025.9
20260510110505 7 360 6.4 12.9 0.03 0.03 0.03 87 1025.9
20260510110011 7 360 6.4 9.7 0.03 0.03 0.03 87 1026.1
20260510105504 7 360 3.2 6.4 0.03 0.03 0.03 87 1026.2
20260510105004 7 360 0.0 6.4 0.03 0.03 0.03 86 1026.2
20260510104506 7 360 0.0 8.0 0.03 0.03 0.03 86 1026.3
20260510104004 7 360 4.8 8.0 0.03 0.03 0.03 86 1026.3
20260510103504 7 360 4.8 8.0 0.03 0.03 0.03 85 1026.4
20260510103012 7 360 0.0 3.2 0.03 0.03 0.03 85 1026.5
20260510102504 7 360 0.0 4.8 0.03 0.03 0.03 85 1026.5
20260510102007 7 360 0.0 4.8 0.03 0.03 0.03 85 1026.5
20260510101508 7 360 3.2 4.8 0.03 0.03 0.03 85 1026.5
20260510101004 7 360 0.0 3.2 0.00 0.00 0.00 84 1026.4
20260510100503 7 360 0.0 4.8 0.00 0.00 0.00 84 1026.4
20260510100004 7 360 0.0 4.8 0.00 0.00 0.00 84 1026.4
20260510095503 7 360 0.0 3.2 0.00 0.00 0.00 84 1026.3
20260510095003 7 360 0.0 0.0 0.00 0.00 0.00 84 1026.3
20260510094525 7 360 0.0 0.0 0.00 0.00 0.00 83 1026.3
20260510094007 7 360 0.0 0.0 0.00 0.00 0.00 83 1026.2
20260510093504 7 360 0.0 0.0 0.00 0.00 0.00 83 1026.1
20260510093008 7 360 0.0 0.0 0.00 0.00 0.00 83 1026.1
20260510092507 7 360 0.0 0.0 0.00 0.00 0.00 83 1026.2
20260510092007 7 360 0.0 3.2 0.00 0.00 0.00 83 1026.1
20260510091520 8 360 0.0 3.2 0.00 0.00 0.00 83 1026.0
20260510091004 8 360 0.0 3.2 0.00 0.00 0.00 82 1025.9
20260510090504 8 360 0.0 3.2 0.00 0.00 0.00 81 1025.8
20260510090012 8 360 0.0 3.2 0.00 0.00 0.00 81 1025.7
20260510085503 8 360 0.0 0.0 0.00 0.00 0.00 79 1025.7
20260510085006 8 360 0.0 0.0 0.00 0.00 0.00 79 1025.6
20260510084514 8 360 0.0 0.0 0.00 0.00 0.00 78 1025.5
20260510084005 8 360 0.0 0.0 0.00 0.00 0.00 77 1025.5
20260510083509 8 360 0.0 0.0 0.00 0.00 0.00 77 1025.6
20260510083010 8 360 0.0 3.2 0.00 0.00 0.00 76 1025.6
20260510082504 8 360 0.0 3.2 0.00 0.00 0.00 76 1025.7
20260510082005 8 360 0.0 6.4 0.00 0.00 0.00 76 1025.6
20260510081510 8 360 0.0 6.4 0.00 0.00 0.00 75 1025.6
20260510081006 8 360 0.0 6.4 0.00 0.00 0.00 74 1025.7
20260510080506 8 360 3.2 6.4 0.00 0.00 0.00 73 1025.7
20260510080009 8 360 1.6 6.4 0.00 0.00 0.00 73 1025.7
20260510075509 8 360 0.0 6.4 0.00 0.00 0.00 73 1025.6
20260510075004 8 360 3.2 6.4 0.00 0.00 0.00 72 1025.7
20260510074519 9 360 0.0 12.9 0.00 0.00 0.00 72 1025.7
20260510074006 9 360 0.0 14.5 0.00 0.00 0.00 72 1025.7
20260510073507 9 360 8.0 22.5 0.00 0.00 0.00 71 1025.7
20260510073024 9 360 12.9 22.5 0.00 0.00 0.00 71 1025.7
20260510072507 9 360 11.3 20.9 0.00 0.00 0.00 70 1025.6
20260510072010 9 360 8.0 24.1 0.00 0.00 0.00 70 1025.6
20260510071522 9 360 9.7 24.1 0.00 0.00 0.00 70 1025.5
20260510071004 9 17 16.1 22.5 0.00 0.00 0.00 69 1025.5
20260510070506 9 360 9.7 27.4 0.00 0.00 0.00 68 1025.5
20260510070012 9 360 16.1 33.8 0.00 0.00 0.00 68 1025.7
20260510065506 10 360 17.7 33.8 0.00 0.00 0.00 66 1025.6
20260510065006 10 360 14.5 27.4 0.00 0.00 0.00 68 1025.5
20260510064511 10 360 12.9 25.7 0.00 0.00 0.00 67 1025.5
20260510064010 10 360 11.3 25.7 0.00 0.00 0.00 66 1025.5
20260510063510 10 360 16.1 25.7 0.00 0.00 0.00 66 1025.5
20260510063014 10 360 17.7 37.0 0.00 0.00 0.00 65 1025.5
20260510062507 10 360 19.3 37.0 0.00 0.00 0.00 65 1025.5
20260510062007 10 360 17.7 35.4 0.00 0.00 0.00 64 1025.3
20260510061524 10 360 22.5 35.4 0.00 0.00 0.00 64 1025.1
20260510061011 10 360 19.3 35.4 0.00 0.00 0.00 63 1024.9
20260510060507 10 360 19.3 37.0 0.00 0.00 0.00 62 1024.7
20260510060036 11 360 24.1 37.0 0.00 0.00 0.00 61 1024.7
20260510055511 11 360 24.1 38.6 0.00 0.00 0.00 61 1024.5
20260510055012 11 360 24.1 38.6 0.00 0.00 0.00 61 1024.4
20260510054518 11 360 16.1 33.8 0.00 0.00 0.00 61 1024.3
20260510054004 11 360 22.5 33.8 0.00 0.00 0.00 60 1024.0
20260510053504 11 360 19.3 29.0 0.00 0.00 0.00 60 1024.0
20260510053004 11 360 19.3 27.4 0.00 0.00 0.00 59 1024.0
20260510052502 11 360 12.9 30.6 0.00 0.00 0.00 59 1024.0
20260510052002 11 360 12.9 33.8 0.00 0.00 0.00 59 1023.8
20260510051504 12 360 22.5 35.4 0.00 0.00 0.00 58 1023.4
20260510051004 12 360 20.9 37.0 0.00 0.00 0.00 57 1023.1
20260510050504 12 360 24.1 40.2 0.00 0.00 0.00 57 1023.0
20260510050008 12 360 24.1 40.2 0.00 0.00 0.00 57 1022.9
20260510045504 12 360 22.5 40.2 0.00 0.00 0.00 55 1022.7
20260510045002 12 360 20.9 40.2 0.00 0.00 0.00 55 1022.3
20260510044506 12 360 27.4 61.2 0.00 0.00 0.00 54 1021.8
20260510044003 13 360 27.4 61.2 0.00 0.00 0.00 52 1021.3
20260510043503 13 9 35.4 62.8 0.00 0.00 0.00 50 1020.4
20260510043010 14 360 43.5 62.8 0.00 0.00 0.00 47 1019.6
20260510042503 15 17 35.4 51.5 0.00 0.00 0.00 42 1019.2
20260510042006 14 17 19.3 29.0 0.00 0.00 0.00 41 1018.9
20260510041515 14 17 11.3 14.5 0.00 0.00 0.00 42 1018.3
20260510041005 15 17 8.0 11.3 0.00 0.00 0.00 40 1018.3
20260510040503 15 15 4.8 11.3 0.00 0.00 0.00 39 1018.2
20260510040004 15 15 4.8 12.9 0.00 0.00 0.00 38 1018.0
20260510035502 15 14 8.0 12.9 0.00 0.00 0.00 38 1017.9
20260510035002 15 15 8.0 12.9 0.00 0.00 0.00 39 1018.0
20260510034506 15 14 0.0 4.8 0.00 0.00 0.00 39 1018.0
20260510034004 15 15 0.0 6.4 0.00 0.00 0.00 36 1017.9
20260510033504 15 15 3.2 6.4 0.00 0.00 0.00 35 1017.9
20260510033004 15 15 3.2 6.4 0.00 0.00 0.00 35 1017.9
20260510032511 15 15 3.2 11.3 0.00 0.00 0.00 34 1017.8
20260510032006 15 15 4.8 11.3 0.00 0.00 0.00 35 1017.7
20260510031504 16 14 3.2 9.7 0.00 0.00 0.00 35 1017.5
20260510031006 16 14 3.2 11.3 0.00 0.00 0.00 35 1017.5
20260510030502 16 15 6.4 14.5 0.00 0.00 0.00 33 1017.3
20260510030006 16 15 8.0 14.5 0.00 0.00 0.00 33 1017.3
20260510025507 16 14 9.7 14.5 0.00 0.00 0.00 33 1017.2
20260510025005 16 14 9.7 14.5 0.00 0.00 0.00 34 1017.1
20260510024510 16 14 6.4 14.5 0.00 0.00 0.00 34 1017.1
20260510024004 16 15 6.4 12.9 0.00 0.00 0.00 34 1017.0
20260510023503 16 223 8.0 12.9 0.00 0.00 0.00 33 1016.8
20260510023022 16 230 8.0 12.9 0.00 0.00 0.00 33 1016.7
20260510022506 16 232 8.0 12.9 0.00 0.00 0.00 33 1016.6
20260510022008 16 238 6.4 12.9 0.00 0.00 0.00 32 1016.6
20260510021507 17 208 4.8 9.7 0.00 0.00 0.00 32 1016.7
20260510021008 17 158 3.2 8.0 0.00 0.00 0.00 31 1016.7
20260510020511 18 157 3.2 9.7 0.00 0.00 0.00 28 1016.6
20260510020008 18 144 3.2 9.7 0.00 0.00 0.00 27 1016.5
20260510015507 18 124 3.2 12.9 0.00 0.00 0.00 27 1016.4
20260510015006 18 123 4.8 22.5 0.00 0.00 0.00 26 1016.5
20260510014506 18 71 3.2 32.2 0.00 0.00 0.00 25 1016.4
20260510014006 19 51 16.1 32.2 0.00 0.00 0.00 25 1016.2
20260510013509 19 62 14.5 24.1 0.00 0.00 0.00 24 1016.2
20260510013012 20 50 14.5 29.0 0.00 0.00 0.00 23 1016.2
20260510012503 20 51 16.1 30.6 0.00 0.00 0.00 22 1016.2
20260510012004 20 50 14.5 30.6 0.00 0.00 0.00 22 1016.1
20260510011518 20 53 14.5 22.5 0.00 0.00 0.00 22 1015.9
20260510011012 20 37 12.9 20.9 0.00 0.00 0.00 21 1015.8
20260510010506 20 40 4.8 24.1 0.00 0.00 0.00 21 1015.6
20260510010017 20 84 6.4 35.4 0.00 0.00 0.00 22 1015.4
20260510005508 20 59 12.9 35.4 0.00 0.00 0.00 22 1015.3
20260510005007 20 134 14.5 32.2 0.00 0.00 0.00 22 1015.3
20260510004507 20 118 19.3 43.5 0.00 0.00 0.00 22 1015.3
20260510004008 20 355 17.7 43.5 0.00 0.00 0.00 21 1015.4
20260510003504 20 360 24.1 41.8 0.00 0.00 0.00 20 1015.3
20260510003014 21 360 11.3 22.5 0.00 0.00 0.00 19 1015.0
20260510002508 21 360 12.9 25.7 0.00 0.00 0.00 19 1014.7
20260510002003 21 360 19.3 30.6 0.00 0.00 0.00 19 1014.5
20260510001511 21 360 19.3 32.2 0.00 0.00 0.00 19 1014.4
20260510001009 21 360 12.9 37.0 0.00 0.00 0.00 19 1014.2
20260510000509 21 360 20.9 37.0 0.00 0.00 0.00 19 1014.1
20260510000011 21 360 14.5 51.5 0.00 0.00 0.00 19 1014.1
20260509235507 21 360 24.1 51.5 0.00 0.00 0.00 19 1013.9
20260509235007 22 360 32.2 46.7 0.00 0.00 0.00 19 1013.7
20260509234509 22 66 16.1 46.7 0.00 0.00 0.00 18 1013.7
20260509234008 23 92 29.0 46.7 0.00 0.00 0.00 16 1013.6
20260509233505 23 360 22.5 37.0 0.00 0.00 0.00 15 1013.6
20260509233018 23 105 3.2 27.4 0.00 0.00 0.00 13 1013.5
20260509232509 23 132 16.1 27.4 0.00 0.00 0.00 13 1013.5
20260509232008 23 164 11.3 25.7 0.00 0.00 0.00 15 1013.4
20260509231519 23 200 11.3 20.9 0.00 0.00 0.00 16 1013.3
20260509231004 23 78 11.3 17.7 0.00 0.00 0.00 15 1013.5
20260509230504 23 55 8.0 17.7 0.00 0.00 0.00 16 1013.6
20260509230004 23 73 12.9 17.7 0.00 0.00 0.00 15 1013.5
20260509225504 23 348 11.3 16.1 0.00 0.00 0.00 17 1013.5
20260509225004 23 49 8.0 17.7 0.00 0.00 0.00 16 1013.4
20260509224512 24 52 12.9 19.3 0.00 0.00 0.00 16 1013.3
20260509224004 24 57 9.7 19.3 0.00 0.00 0.00 16 1013.3
20260509223511 25 50 11.3 17.7 0.00 0.00 0.00 15 1013.3
20260509223016 25 50 3.2 12.9 0.00 0.00 0.00 14 1013.3
20260509222503 25 94 6.4 16.1 0.00 0.00 0.00 15 1013.3
20260509222007 25 86 4.8 16.1 0.00 0.00 0.00 14 1013.3
20260509221503 26 82 8.0 14.5 0.00 0.00 0.00 14 1013.3
20260509221005 26 40 3.2 12.9 0.00 0.00 0.00 14 1013.3
20260509220504 26 96 8.0 12.9 0.00 0.00 0.00 14 1013.4
20260509220008 25 101 3.2 16.1 0.00 0.00 0.00 14 1013.4
20260509215505 25 40 1.6 17.7 0.00 0.00 0.00 15 1013.5
20260509215005 25 84 4.8 17.7 0.00 0.00 0.00 15 1013.5